User: anonymous   Login
Location: Colorado Springs
(38.8340°N, 104.8210°W)
Time: 20:55:44
(UTC-06:00)
Language:

Tiangong 2 - Orbit

View from above orbital plane
View from above orbital plane
View from above satellite
View from above satellite

Ground track
Ground track

The orbit data is extracted from the following two-line orbital elements,

1 41765U 16057A   17294.81860059  .00005564  00000-0  73496-4 0  9995
2 41765  42.7844 322.5958 0002449  18.7270 145.6933 15.59254972 62741
Epoch (UTC): 21 October 2017 19:38:47
Eccentricity: 0.0002449
inclination: 42.7844°
perigee height: 388 km
apogee height: 391 km
right ascension of ascending node: 322.5958°
argument of perigee: 18.7270°
revolutions per day: 15.59254972
mean anomaly at epoch: 145.6933°
orbit number at epoch: 6274

The dashed part of the orbit path shows where the satellite is in the earth's shadow,  

DLR